Location: Newark
(53.2000°N, 6.1000°W)
Time: 11:38:53
(UTC+00:00)

N. Korean satellite - Visible Passes

Search period start: 24 September 2020 00:00
Search period end: 04 October 2020 00:00
Orbit: 455 x 503 km, 97.2° (Epoch: 23 September)

Date Brightness Start Highest point End Pass type
(mag) Time Alt. Az. Time Alt. Az. Time Alt. Az.
25 Sep 9.4 05:19:22 10° NE 05:22:23 24° E 05:25:21 10° SSE visible
26 Sep 10.0 04:54:16 10° ENE 04:56:07 13° E 04:57:57 10° ESE visible
28 Sep 8.7 05:34:26 10° NNE 05:37:46 33° E 05:41:03 10° SSE visible
29 Sep 9.7 05:08:55 10° NE 05:11:33 19° E 05:14:08 10° SE visible
30 Sep 10.4 04:44:39 10° ENE 04:45:13 10° E 04:45:47 10° E visible
01 Oct 7.8 05:49:34 10° NNE 05:53:06 48° E 05:56:33 10° S visible
02 Oct 9.1 05:23:50 10° NE 05:26:55 26° E 05:29:57 10° SSE visible
03 Oct 9.9 04:58:35 10° NE 05:00:39 15° E 05:02:42 10° ESE visible
